When you browse on this site, cookies collect data to enhance your experience and personalize the content and advertising you see.
Visit our Privacy Policy to learn more. By continuing to use the site, you agree to this use of cookies and data.
  • en Suisse
  • Liste des pays
  • À 7 jours
  • Température de l'eau
  • Carte satellitaire
  • Carte météo
  • Widgets météo
  • user-avatar
    Se connecter

    Météo par heure à Townsville

    Ce jour, 10 Décembre, Lundi

    Heure Température Précipitation Vent Pression Humidité
    00:00 +26°C° 1.4 mm 8 m/s 749 mmHg 94%
    01:00 +26°C° 1.4 mm 8 m/s 749 mmHg 95%
    02:00 +26°C° 1.4 mm 8 m/s 749 mmHg 95%
    03:00 +26°C° 1.4 mm 8 m/s 749 mmHg 95%
    04:00 +26°C° 0 mm 7 m/s 749 mmHg 94%
    05:00 +26°C° 1.5 mm 7 m/s 749 mmHg 94%
    06:00 +26°C° 1.5 mm 7 m/s 749 mmHg 93%
    07:00 +26°C° 1.5 mm 7 m/s 750 mmHg 93%
    08:00 +26°C° 1.6 mm 7 m/s 750 mmHg 92%
    09:00 +27°C° 1.6 mm 7 m/s 750 mmHg 91%
    10:00 +27°C° 1.6 mm 6 m/s 750 mmHg 91%
    11:00 +28°C° 1.2 mm 6 m/s 750 mmHg 89%
    12:00 +29°C° 1.2 mm 6 m/s 750 mmHg 86%
    13:00 +29°C° 1.2 mm 6 m/s 749 mmHg 84%
    14:00 +29°C° 0.7 mm 6 m/s 749 mmHg 86%
    15:00 +29°C° 0.7 mm 6 m/s 749 mmHg 87%
    16:00 +28°C° 0.7 mm 6 m/s 748 mmHg 88%
    17:00 +28°C° 0.4 mm 5 m/s 749 mmHg 90%
    18:00 +27°C° 0.4 mm 5 m/s 749 mmHg 92%
    19:00 +27°C° 0.4 mm 5 m/s 749 mmHg 94%
    20:00 +27°C° 0.4 mm 5 m/s 750 mmHg 94%
    21:00 +27°C° 0.4 mm 6 m/s 750 mmHg 94%
    22:00 +27°C° 0.4 mm 6 m/s 751 mmHg 94%
    23:00 +27°C° 0.5 mm 6 m/s 750 mmHg 95%

    Demain, 11 Décembre, Mardi

    Heure Température Précipitation Vent Pression Humidité
    00:00 +27°C° 0.5 mm 5 m/s 750 mmHg 95%
    01:00 +27°C° 0.5 mm 5 m/s 750 mmHg 95%
    02:00 +27°C° 0.6 mm 5 m/s 750 mmHg 95%
    03:00 +27°C° 0.6 mm 5 m/s 750 mmHg 96%
    04:00 +27°C° 0.6 mm 4 m/s 750 mmHg 96%
    05:00 +27°C° 0.7 mm 4 m/s 750 mmHg 95%
    06:00 +27°C° 0.7 mm 4 m/s 750 mmHg 95%
    07:00 +27°C° 0.7 mm 4 m/s 751 mmHg 94%
    08:00 +28°C° 0.8 mm 4 m/s 751 mmHg 92%
    09:00 +28°C° 0.8 mm 4 m/s 751 mmHg 90%
    10:00 +28°C° 0.8 mm 4 m/s 751 mmHg 88%
    11:00 +29°C° 1.7 mm 4 m/s 751 mmHg 86%
    12:00 +30°C° 1.7 mm 4 m/s 750 mmHg 84%
    13:00 +30°C° 1.7 mm 4 m/s 750 mmHg 83%
    14:00 +30°C° 0.6 mm 4 m/s 749 mmHg 82%
    15:00 +30°C° 0.6 mm 4 m/s 749 mmHg 82%
    16:00 +32°C° 0.6 mm 4 m/s 748 mmHg 81%
    17:00 +30°C° 0.2 mm 4 m/s 749 mmHg 85%
    18:00 +29°C° 0.2 mm 4 m/s 749 mmHg 89%
    19:00 +28°C° 0.2 mm 4 m/s 750 mmHg 93%
    20:00 +28°C° 1 mm 4 m/s 750 mmHg 94%
    21:00 +28°C° 1 mm 4 m/s 751 mmHg 94%
    22:00 +28°C° 1 mm 4 m/s 751 mmHg 95%
    23:00 +27°C° 1.1 mm 4 m/s 751 mmHg 96%

    Après-demain, 12 Décembre, Mercredi

    Heure Température Précipitation Vent Pression Humidité
    00:00 +27°C° 1.1 mm 4 m/s 750 mmHg 96%
    01:00 +27°C° 1.1 mm 3 m/s 750 mmHg 96%
    02:00 +27°C° 0.7 mm 3 m/s 749 mmHg 96%
    03:00 +27°C° 0.7 mm 3 m/s 749 mmHg 96%
    04:00 +27°C° 0.7 mm 3 m/s 749 mmHg 96%
    05:00 +27°C° 0.7 mm 3 m/s 749 mmHg 95%
    06:00 +27°C° 0.7 mm 3 m/s 750 mmHg 94%
    07:00 +28°C° 0.7 mm 3 m/s 750 mmHg 93%
    08:00 +28°C° 0.7 mm 3 m/s 750 mmHg 89%
    09:00 +29°C° 0.7 mm 3 m/s 750 mmHg 86%
    10:00 +30°C° 0.7 mm 3 m/s 750 mmHg 82%
    11:00 +31°C° 0.9 mm 3 m/s 750 mmHg 79%
    12:00 +33°C° 0.9 mm 3 m/s 749 mmHg 76%
    13:00 +33°C° 0.9 mm 3 m/s 749 mmHg 73%
    14:00 +33°C° 0.2 mm 3 m/s 748 mmHg 72%
    15:00 +33°C° 0.2 mm 3 m/s 748 mmHg 71%
    16:00 +33°C° 0.2 mm 3 m/s 748 mmHg 70%
    17:00 +31°C° 0.1 mm 3 m/s 748 mmHg 76%
    18:00 +30°C° 0.1 mm 2 m/s 749 mmHg 82%
    19:00 +28°C° 0.1 mm 2 m/s 749 mmHg 87%
    20:00 +28°C° 0 mm 2 m/s 750 mmHg 90%
    21:00 +28°C° 0 mm 2 m/s 750 mmHg 92%
    22:00 +28°C° 0 mm 2 m/s 751 mmHg 94%
    23:00 +27°C° 0 mm 2 m/s 750 mmHg 95%

    13 Décembre, Jeudi

    Heure Température Précipitation Vent Pression Humidité
    00:00 +27°C° 0 mm 2 m/s 749 mmHg 96%
    01:00 +27°C° 0 mm 2 m/s 749 mmHg 97%
    02:00 +27°C° 0.1 mm 2 m/s 749 mmHg 97%
    03:00 +27°C° 0.1 mm 2 m/s 748 mmHg 96%
    04:00 +27°C° 0.1 mm 2 m/s 748 mmHg 96%
    05:00 +27°C° 0 mm 1 m/s 749 mmHg 95%
    06:00 +28°C° 0 mm 1 m/s 749 mmHg 93%
    07:00 +28°C° 0 mm 1 m/s 749 mmHg 92%
    08:00 +29°C° 0.1 mm 1 m/s 749 mmHg 85%
    09:00 +31°C° 0.1 mm 2 m/s 749 mmHg 78%
    10:00 +32°C° 0.1 mm 2 m/s 749 mmHg 72%
    11:00 +32°C° 0.6 mm 2 m/s 749 mmHg 71%
    12:00 +34°C° 0.6 mm 3 m/s 748 mmHg 70%
    13:00 +34°C° 0.6 mm 4 m/s 748 mmHg 69%
    14:00 +34°C° 0.2 mm 4 m/s 748 mmHg 70%
    15:00 +34°C° 0.2 mm 4 m/s 747 mmHg 72%
    16:00 +33°C° 0.2 mm 4 m/s 747 mmHg 73%
    17:00 +32°C° 0.1 mm 4 m/s 747 mmHg 78%
    18:00 +30°C° 0.1 mm 4 m/s 747 mmHg 83%
    19:00 +29°C° 0.1 mm 4 m/s 747 mmHg 88%
    20:00 +29°C° 0.7 mm 4 m/s 748 mmHg 90%
    21:00 +29°C° 0.7 mm 3 m/s 748 mmHg 91%
    22:00 +28°C° 0.7 mm 3 m/s 748 mmHg 93%
    23:00 +28°C° 0.7 mm 3 m/s 748 mmHg 93%

    14 Décembre, Vendredi

    Heure Température Précipitation Vent Pression Humidité
    00:00 +28°C° 0.7 mm 3 m/s 747 mmHg 93%
    01:00 +28°C° 0.7 mm 3 m/s 747 mmHg 93%
    02:00 +28°C° 1.3 mm 2 m/s 747 mmHg 91%
    03:00 +28°C° 1.3 mm 2 m/s 747 mmHg 88%
    04:00 +28°C° 1.3 mm 2 m/s 746 mmHg 86%
    05:00 +28°C° 0.5 mm 2 m/s 747 mmHg 87%
    06:00 +27°C° 0.5 mm 2 m/s 747 mmHg 87%
    07:00 +27°C° 0.5 mm 1 m/s 747 mmHg 87%
    08:00 +28°C° 0.3 mm 2 m/s 747 mmHg 87%
    09:00 +28°C° 0.3 mm 2 m/s 747 mmHg 86%
    10:00 +28°C° 0.3 mm 2 m/s 748 mmHg 86%
    11:00 +29°C° 0.1 mm 3 m/s 747 mmHg 81%
    12:00 +30°C° 0.1 mm 3 m/s 747 mmHg 77%
    13:00 +32°C° 0.1 mm 4 m/s 746 mmHg 73%
    14:00 +30°C° 0.9 mm 4 m/s 746 mmHg 78%
    15:00 +29°C° 0.9 mm 3 m/s 746 mmHg 84%
    16:00 +28°C° 0.9 mm 3 m/s 746 mmHg 89%
    17:00 +28°C° 0.6 mm 3 m/s 746 mmHg 90%
    18:00 +27°C° 0.6 mm 3 m/s 747 mmHg 91%
    19:00 +27°C° 0.6 mm 3 m/s 747 mmHg 92%
    20:00 +27°C° 0.8 mm 3 m/s 748 mmHg 92%
    21:00 +27°C° 0.8 mm 3 m/s 748 mmHg 93%
    22:00 +27°C° 0.8 mm 2 m/s 748 mmHg 94%
    23:00 +27°C° 1.3 mm 2 m/s 748 mmHg 94%

    15 Décembre, Samedi

    Heure Température Précipitation Vent Pression Humidité
    00:00 +26°C° 1.3 mm 2 m/s 747 mmHg 94%
    01:00 +26°C° 1.3 mm 2 m/s 747 mmHg 94%
    02:00 +26°C° 0.6 mm 2 m/s 747 mmHg 94%
    03:00 +26°C° 0.6 mm 2 m/s 746 mmHg 94%
    04:00 +26°C° 0.6 mm 2 m/s 746 mmHg 94%
    05:00 +26°C° 0.5 mm 1 m/s 747 mmHg 94%
    06:00 +26°C° 0.5 mm 1 m/s 747 mmHg 95%
    07:00 +26°C° 0.5 mm 1 m/s 748 mmHg 95%
    08:00 +28°C° 0.5 mm 1 m/s 748 mmHg 88%
    09:00 +30°C° 0.5 mm 1 m/s 748 mmHg 80%
    10:00 +31°C° 0.5 mm 1 m/s 748 mmHg 73%
    11:00 +31°C° 0.6 mm 1 m/s 748 mmHg 74%
    12:00 +31°C° 0.6 mm 2 m/s 747 mmHg 74%
    13:00 +31°C° 0.6 mm 3 m/s 747 mmHg 75%
    14:00 +30°C° 1.3 mm 3 m/s 747 mmHg 80%
    15:00 +29°C° 1.3 mm 4 m/s 747 mmHg 85%
    16:00 +28°C° 1.3 mm 4 m/s 747 mmHg 91%
    17:00 +27°C° 1.9 mm 5 m/s 747 mmHg 92%
    18:00 +27°C° 1.9 mm 5 m/s 747 mmHg 94%
    19:00 +27°C° 1.9 mm 6 m/s 747 mmHg 96%
    20:00 +27°C° 1.6 mm 6 m/s 747 mmHg 95%
    21:00 +27°C° 1.6 mm 6 m/s 747 mmHg 95%
    22:00 +27°C° 1.6 mm 6 m/s 747 mmHg 94%
    23:00 +27°C° 0.9 mm 7 m/s 746 mmHg 93%
    Voir plus